EHI
0 0 0 0 0 0 0 0 0 0 0 0 0 0 0 0 0 0 0 0 0 0 0 0 0 0 0 0 0 0 0 0 0 0 0 0 0 0
0 0 0 0 0 0 0 0 0 0 0 0 0 0 0 0 0 0 0 0 0 0 0 0 0 0 0 0 0 0 0 0 0 0 0 0 0 0
0 0 0 0 0 0 0 0 0 0 0 0 0 0 0 0 0 0 0 0 0 0 0 0 0 0 0 0 0 0 0 0 0 0 0 0 0 0
0 0 0 0 0 0 0 0 0 0 0 0 0 0 0 0 0 0 0 0 0 0 0 0 0 0 0 0 0 0 0 0 0 0 0 0 0 0
0 0 0 0 0 0 0 0 0 0 0 0 0 0 0 0 0 0 0 0 0 0 0 0 0 0 0 0 0 0 0 0 0 0 0 0 0 0
0 0 0 0 0 0 0 0 0 0 0 0 0 0 0 0 0 0 0 0 0 0 0 0 0 0 0 0 0 0 0 0 0 0 0 0 0 0
0 0 0 0 0 0 0 0 0 0 0 0 0 0 0 0 0 0 0 0 0 0 0 0 0 0 0 0 0 0 0 0 0 0 0 0 0 0
0 0 0 0 0 0 0 0 0 0 0 0 0 0 0 0 0 0 0 0 0 0 0 0 0 0 0 0 0 0 0 0 0 0 0 0 0 0
0 0 0 0 0 0 0 0 0 0 0 0 0 0 0 0 0 0 0 0 0 0 0 0 0 0 0 0 0 0 0 0 0 0 0 0 0 0
0 0 0 0 0 0 0 0 0 0 0 0 0 0 0 0 0 0 0 0 0 0 0 0 0 0 0 0 0 0 0 0 0 0 0 0 0 0
0 0 0 0 0 0 0 0 0 0 0 0 0 0 0 0 0 0 0 0 0 0 0 0 0 0 0 0 0 0 0 0 0 0 0 0 0 0
0 0 0 0 0 0 0 0 0 0 0 0 0 0 0 0 0 0 0 0 0 0 0 0 0 0 0 0 0 0 0 0 0 0 0 0 0 0
0 0 0 0 0 0 0 0 0 0 0 0 0 0 0 0 0 0 0 0 0 0 0 0 0 0 0 0 0 0 0 0 0 0 0 0 0 0
0 0 0 0 0 0 0 0 0 0 0 0 0 0 0 0 0 0 0 0 0 0 0 0 0 0 0 0 0 0 0 0 0 0 0 0 0 0
0 0 0 0 0 0 0 0 0 0 0 0 0 0 0 0 0 0 0 0 0 0 0 0 0 0 0 0 0 0 0 0 0 0 0 0 0 0
0 0 0 0 0 0 0 0 0 0 0 0 0 0 0 0 0 0 0 0 0 0 0 0 0 0 0 0 0 0 0 0 0 0 0 0 0 0
0 0 0 0 0 0 0 0 0 0 0 0 0 0 0 0 0 0 0 0 0 0 0 0 0 0 0 0 0 0 0 0 0 0 0 0 0 0
0 0 0 0 0 0 0 0 0 0 0 0 0 0 0 0 0 0 0 0 0 0 0 0 0 0 0 0 0 0 0 0 0 0 0 0 0 0
0 0 0 0 0 0 0 0 0 0 0 0 0 0 0 0 0 0 0 0 0 0 0 0 0 0 0 0 0 0 0 0 0 0 0 0 0 0
0 0 0 0 0 0 0 0 0 0 0 0 0 0 0 0 0 0 0 0 0 0 0 0 0 0 0 0 0 0 0 0 0 0 0 0 0 0
0 0 0 0 0 0 0 0 0 0 0 0 0 0 0 0 0 0 0 0 0 0 0 0 0 0 0 0 0 0 0 0 0 0 0 0 0 0
0 0 0 0 0 0 0 0 0 0 0 0 0 0 0 0 0 0 0 0 0 0 0 0 0 0 0 0 0 0 0 0 0 0 0 0 0 0
0 0 0 0 0 0 0 0 0 0 0 0 0 0 0 0 0 0 0 0 0 0 0 0 0 0 0 0 0 0 0 0 0 0 0 0 0 0
Wind_Speed
6 6 5 5 4 5 5 5 4 3 3 2 1 1 2 3 4 4 5 8 9 7 6 6 5 5 4 3 2 1 1 2 4 6 9 12 14 16
5 6 6 5 4 4 5 5 5 5 3 2 1 2 3 4 6 5 7 11 11 10 9 9 9 9 9 9 8 7 7 6 5 5 4 4 6 8
7 7 7 6 5 4 4 4 5 5 4 2 1 2 4 6 6 5 5 5 6 11 12 12 12 12 12 13 13 12 12 12 12 12 11 10 10 8
7 7 8 6 6 5 4 5 5 5 4 4 3 3 4 7 7 7 5 6 6 12 14 14 14 14 14 14 14 14 14 14 14 14 14 14 14 14
7 8 8 7 6 5 5 5 4 4 4 5 4 3 3 5 7 7 7 6 7 9 13 14 15 15 14 14 14 14 14 14 14 14 15 15 16 16
7 8 8 7 7 6 5 5 4 4 5 6 6 5 5 5 6 7 6 4 5 6 8 9 12 14 14 14 14 14 13 13 14 14 15 15 15 15
7 7 8 9 10 8 6 6 6 5 6 7 7 6 7 8 7 5 8 6 5 3 5 5 5 6 7 10 12 14 13 13 13 14 14 14 15 15
7 7 7 8 10 11 11 11 11 10 9 8 6 9 9 8 6 8 8 7 4 2 3 4 4 5 4 4 8 11 11 12 13 13 14 14 14 14
7 7 6 6 7 5 7 9 10 12 12 9 10 10 10 10 10 9 7 5 5 5 4 4 3 4 4 5 9 10 10 11 11 12 13 13 13 13
7 8 7 6 6 7 7 6 5 6 8 7 8 8 10 10 9 9 9 7 6 4 3 4 2 3 3 4 7 8 9 10 11 11 12 12 12 12
7 7 8 7 9 11 9 8 7 5 6 10 10 11 13 13 11 9 8 9 7 3 1 4 3 3 2 2 4 7 8 9 10 11 11 11 11 10
5 6 9 10 11 12 10 11 10 8 9 10 10 11 10 12 13 10 10 10 8 4 2 4 4 4 3 2 2 2 3 6 9 10 10 10 9 6
5 5 5 10 12 12 10 9 12 11 10 11 9 8 7 6 6 5 6 9 8 4 6 5 4 3 4 3 1 1 1 2 3 4 6 8 8 6
5 4 5 10 12 12 9 11 15 13 9 9 8 7 6 5 5 5 6 5 4 6 8 7 5 4 5 4 2 1 1 1 2 2 2 4 5 6
4 6 7 10 11 10 12 15 13 9 9 9 8 6 5 5 6 6 7 7 6 5 5 5 7 5 5 5 4 3 2 1 1 2 2 2 2 2
3 5 8 9 8 10 11 9 7 7 9 9 7 6 5 5 6 6 7 6 6 4 5 4 7 9 5 4 4 3 3 3 2 2 2 1 1 1
4 4 5 6 6 7 6 6 6 8 7 7 8 7 6 6 5 4 5 5 5 4 3 4 6 6 6 6 5 3 3 2 2 3 3 2 2 2
5 5 6 6 8 8 8 7 7 7 8 8 7 7 7 7 5 4 4 6 6 5 4 3 5 5 5 5 3 5 3 2 2 2 3 3 2 3
4 4 5 6 7 7 7 7 7 7 7 8 8 7 6 6 6 5 5 5 5 4 3 3 4 5 5 2 2 1 4 3 2 2 2 3 3 4
4 4 5 6 6 7 7 7 7 7 7 7 7 7 6 6 6 6 5 5 5 4 3 2 3 5 6 6 4 2 3 5 4 3 2 1 1 2
4 4 4 5 5 6 6 7 7 7 7 7 7 7 6 6 6 5 5 8 5 4 4 4 3 5 4 4 3 1 3 5 6 5 4 3 1 1
3 3 3 4 5 6 6 7 7 6 7 6 6 6 6 6 7 7 7 7 5 5 5 3 3 3 3 4 4 3 3 2 3 6 7 8 6 6
3 3 3 4 4 5 6 7 8 6 6 6 6 6 6 6 6 6 7 7 6 5 4 4 2 2 2 3 4 3 4 3 2 2 5 10 14 13
Wind_Direction
233 234 234 236 228 224 218 211 218 246 258 239 224 62 90 92 96 90 91 91 90 86 83 83 84 84 82 80 82 99 149 200 211 219 220 219 219 218
233 234 238 238 235 229 222 214 208 211 229 221 201 154 127 111 101 95 93 91 85 84 82 81 80 78 76 74 72 73 77 82 90 97 114 160 189 201
245 236 238 235 239 235 225 216 210 200 215 211 178 144 129 125 113 100 92 83 82 82 83 80 78 77 76 75 73 72 73 75 77 79 80 83 89 101
251 242 241 240 238 232 222 219 211 195 187 188 163 149 134 136 124 112 101 91 85 81 82 80 77 77 75 75 74 72 71 72 74 75 77 79 82 84
252 243 241 235 238 229 221 219 209 198 179 169 161 144 131 135 124 110 103 97 93 88 80 77 77 76 75 75 75 74 73 72 72 73 74 76 79 81
254 244 238 230 228 221 220 214 196 181 169 162 157 150 140 135 130 127 116 100 95 88 81 78 76 74 74 78 80 79 76 77 76 76 75 75 76 78
262 249 239 232 223 216 213 201 183 176 170 164 161 154 151 152 146 139 126 115 87 88 90 71 66 61 58 66 76 81 79 79 80 80 80 80 79 79
261 256 245 233 225 218 217 204 187 180 176 169 168 164 158 150 139 141 138 138 121 126 98 78 66 66 53 59 72 80 82 84 86 86 85 83 83 83
249 247 247 229 213 208 205 194 192 188 179 171 166 164 158 156 149 146 148 135 123 148 117 86 62 66 51 58 70 78 84 89 92 94 94 91 88 86
242 236 233 221 210 191 175 167 169 174 173 167 161 155 152 153 151 146 142 115 102 114 107 105 86 71 52 38 56 75 85 94 101 105 104 100 96 91
246 235 223 214 205 185 167 158 149 144 139 138 137 140 146 148 144 136 138 137 134 141 121 109 120 94 60 38 37 61 78 91 103 111 113 111 105 94
249 233 219 209 195 182 170 160 157 151 140 129 125 127 136 143 146 151 152 148 141 146 175 118 141 124 90 31 34 32 51 74 93 109 120 120 113 96
242 230 212 195 187 181 174 165 157 145 138 132 127 124 121 127 135 140 148 152 150 152 161 134 141 127 122 131 80 47 69 76 79 91 112 126 123 116
234 223 198 184 175 170 166 148 141 135 131 129 127 129 131 134 133 131 131 129 135 149 158 147 137 146 127 123 140 122 87 101 111 114 112 114 104 103
223 209 180 173 164 155 149 146 142 137 136 134 135 135 131 129 120 110 104 100 83 89 136 148 136 132 128 135 143 143 140 167 154 144 150 149 152 127
200 177 163 165 156 139 142 144 138 137 138 135 131 123 113 112 119 123 123 117 96 61 41 82 133 132 122 122 131 143 154 162 169 169 154 165 190 178
156 150 155 156 149 140 139 133 128 129 125 125 126 125 122 118 114 110 116 108 109 114 83 49 59 79 103 127 125 137 143 148 163 157 144 163 232 215
152 155 157 160 153 148 144 134 130 134 133 130 131 132 133 130 121 106 108 117 122 122 121 121 110 88 60 31 78 140 141 152 157 153 144 153 228 242
147 151 151 154 148 145 142 135 134 139 137 138 140 139 135 131 127 125 119 117 121 124 128 128 120 115 118 135 312 134 153 155 144 148 170 174 205 229
143 146 143 142 141 140 138 131 132 136 137 140 140 140 139 138 137 139 139 136 134 126 123 126 141 145 155 168 183 221 181 159 158 172 183 174 260 307
134 135 130 135 137 136 135 134 137 141 143 141 144 147 145 140 143 150 150 150 138 136 152 181 195 156 117 100 106 241 250 206 183 174 168 155 187 277
126 136 139 141 141 140 138 137 138 141 143 141 147 149 147 146 150 152 153 156 158 157 164 162 131 123 123 147 177 204 234 250 231 219 206 184 174 195
151 152 152 151 145 142 141 143 145 148 150 148 149 149 149 148 149 151 154 155 154 151 140 143 145 143 154 162 177 199 220 228 229 242 253 238 228 231